Location: Poigny-la-Forêt
(48.6876°N, 1.7701°E)
Time: 04:33:23
(UTC+02:00)

ISS - Pass Details

Date: 22 May 2019
Orbit: 408 x 418 km, 51.6° (Epoch: 17 June)

Event Time Altitude Azimuth Distance (km) Brightness Sun altitude
Rises 22:35:00 0° 250° (WSW) 2,346 0.4 -8.4°
Reaches altitude 10° 22:37:04 10° 251° (WSW) 1,488 -0.6 -8.6°
Maximum altitude 22:40:25 85° 340° (NNW) 424 -3.7 -9.0°
Drops below altitude 10° 22:43:48 10° 69° (ENE) 1,500 -1.2 -9.4°
Sets 22:45:54 0° 70° (ENE) 2,367 -0.2 -9.7°
